User: anonymous   Login
Location: Unspecified
(9.1000°N, 0.0000°E)
Time: 20:00:32
(UTC+00:00)
Language:

ISS - Orbit

View from above orbital plane
View from above orbital plane
View from above satellite
View from above satellite

Ground track
Ground track

The orbit data is extracted from the following two-line orbital elements,

1 25544U 98067A   19142.52913523  .00016717  00000-0  10270-3 0  9037
2 25544  51.6366 128.6541 0001924  14.3169 345.8037 15.52684051 11263
Epoch (UTC): 22 May 2019 12:41:57
Eccentricity: 0.0001924
inclination: 51.6366°
perigee height: 407 km
apogee height: 410 km
right ascension of ascending node: 128.6541°
argument of perigee: 14.3169°
revolutions per day: 15.52684051
mean anomaly at epoch: 345.8037°
orbit number at epoch: 1126

The dashed part of the orbit path shows where the satellite is in the earth's shadow,  

DLR